Home   Weather   Koszalin   Past weeks

Flag for Poland Past Weather in Koszalin, Poland — Yesterday and Last 2 Weeks

Now
34 °F

Light rain. Overcast.


Feels Like: 28 °F
Forecast: 40 / 47 °F
Wind: 7 mph from South

Location: Koszalin

Current Time: Dec 7, 2016 at 7:21:16 pm

Latest Report: Dec 7, 2016 at 6:00 pm


Visibility: 4 mi

Pressure: 30.31 "Hg

Humidity: 90%

Dew Point: 31 °F

Location of KoszalinLocation

Past Weather in Koszalin — Graph

°F

Koszalin Temperature Yesterday

Maximum temperature yesterday: 43 °F (at 4:00 am)
Minimum temperature yesterday: 30 °F (at 10:00 pm)
Average temperature yesterday: 40 °F

High & Low Weather Summary for the Past Weeks

 TemperatureHumidityPressure
High48 °F (Nov 22, 6:00 pm)100% (Nov 23, 11:00 am)30.56 "Hg (Nov 23, 11:00 am)
Low27 °F (Dec 7, 5:00 am)49% (Nov 28, 11:00 pm)29.44 "Hg (Dec 1, 10:00 pm)
Average38 °F86%30.13 "Hg
* Reported Nov 22 6:00 pm — Dec 7 6:00 pm, Koszalin, Weather by CustomWeather, © 2016

Note: Actual official high and low records may vary slightly from our data, if they occured in-between our weather recording intervals... More about our weather records

Advertising

Koszalin Weather History for the Previous 24 Hours

Scroll right to see more
 ConditionsComfort  
Time TempWeatherWind HumidityBarometerVisibility
6:00 pm
Wed, Dec 7
34 °FLight rain. Overcast.7 mph90%30.31 "Hg4 mi
5:00 pm34 °FLight rain. Overcast.6 mph88%30.34 "Hg6 mi
4:00 pm34 °FFog.6 mph89%30.36 "Hg6 mi
3:00 pm34 °FLow clouds.5 mph89%30.39 "Hg7 mi
2:00 pm34 °FOvercast.5 mph91%30.42 "Hg7 mi
1:00 pm33 °FLow clouds.5 mph93%30.44 "Hg6 mi
12:00 pm31 °FFog.5 mph94%30.46 "Hg6 mi
11:00 am30 °FFog.3 mph95%30.48 "Hg4 mi
10:00 am29 °FLow clouds.5 mph93%30.51 "Hg6 mi
9:00 am29 °FLow clouds.3 mph93%30.51 "Hg6 mi
8:00 am29 °FOvercast.3 mph93%30.53 "Hg6 mi
7:00 am28 °FOvercast.2 mph93%30.53 "Hg7 mi
6:00 am27 °FFog.2 mph94%30.53 "Hg4 mi
5:00 am27 °FClear.2 mph94%30.55 "Hg7 mi
4:00 am27 °FClear.2 mph95%30.56 "Hg7 mi
3:00 am28 °FFog.1 mph95%30.56 "Hg5 mi
2:00 am28 °FFog.2 mph95%30.55 "Hg5 mi
1:00 am28 °FFog.2 mph95%30.54 "Hg4 mi
10:00 pm
Tue, Dec 6
30 °FFog.1 mph95%30.54 "Hg2 mi
Weather by CustomWeather, © 2016

See weather overviewHow to use our weather pages